Location: Casa Rossa
(45.2389°N, 12.2056°E)
Time: 02:56:11
(UTC+00:00)

Meteor 1-4 Rocket - Pass Details

Date: 14 July 2020
Orbit: 449 x 503 km, 81.2° (Epoch: 11 August)

Event Time Altitude Azimuth Distance (km) Brightness Sun altitude
Rises 00:15:59 0° 345° (NNW) 2,586 7.2 -21.8°
Reaches altitude 10° 00:18:09 10° 340° (NNW) 1,691 6.0 -21.7°
Enters shadow 00:21:23 49° 288° (WNW) 631 3.0 -21.5°
